STARLINK AV (44278 NORAD) Tracking and Keplerian Element Data

This shows tracking and keplerian element data for the satellite.

Feedback or suggestion? Click here.




ElementValue
Catalog44278
NameSTARLINK AV
Epoch Orbit472
Epoch Day174.19807808
Epoch Year2019
RAAN32.0839
Inclination53.0031
Eccentricity0.0004759
Argument of Perigee275.5119
Mean Anonmoly84.5347
Mean Motion15.55571349
Decay Rate-0.0012761
L11 44278U 19029AV 19174.19807808 -.00127610 00000-0 -18519-2 0 9994
L22 44278 53.0031 32.0839 0004759 275.5119 84.5347 15.55571349 4728

Live tracking and technical data element details for STARLINK AV (NORAD 44278). STARLINK AV can be tracked NOW for your location showing map with azimuth and elevation plus other details from your city location.

Track the satellite on the map from your city or location and see movement details for azimuth, elevation, latitude, longitude, range, height, and movement on the map or in text.







IsCatalogInMostPopularTable: catalog: 44278, numindb: 29
Update: records affected: 1



GetName: 44278 STARLINK AV

Hit Count: updated at: Mon, 22 Jul 2019 16:38:18 GMT